TimeEST,TemperatureF,Dew PointF,Humidity,Sea Level PressureIn,VisibilityMPH,Wind Direction,Wind SpeedMPH,Gust SpeedMPH,PrecipitationIn,Events,Conditions,WindDirDegrees,DateUTC
12:53 AM,36.0,28.0,73,30.35,10.0,NNW,4.6,-,N/A,,Overcast,330,2013-03-08 05:53:00
1:53 AM,35.1,27.0,72,30.37,10.0,NW,4.6,-,N/A,,Overcast,320,2013-03-08 06:53:00
2:53 AM,34.0,26.1,73,30.37,10.0,NNW,4.6,-,N/A,,Mostly Cloudy,340,2013-03-08 07:53:00
3:53 AM,33.1,26.1,75,30.37,10.0,NNW,5.8,-,N/A,,Overcast,340,2013-03-08 08:53:00
4:19 AM,33.8,26.6,75,30.36,8.0,North,4.6,-,N/A,,Overcast,350,2013-03-08 09:19:00
4:53 AM,33.1,27.0,78,30.39,10.0,North,5.8,-,N/A,,Overcast,360,2013-03-08 09:53:00
5:53 AM,33.1,25.0,72,30.42,10.0,North,10.4,-,N/A,,Overcast,360,2013-03-08 10:53:00
6:07 AM,32.0,23.0,69,30.40,10.0,North,9.2,18.4,N/A,,Mostly Cloudy,10,2013-03-08 11:07:00
6:53 AM,30.0,21.9,72,30.45,10.0,NNW,4.6,-,N/A,,Clear,340,2013-03-08 11:53:00
7:53 AM,30.9,23.0,72,30.47,10.0,NNW,4.6,-,N/A,,Clear,330,2013-03-08 12:53:00
8:53 AM,34.0,24.1,67,30.48,10.0,North,4.6,-,N/A,,Scattered Clouds,10,2013-03-08 13:53:00
9:53 AM,35.1,24.1,64,30.49,10.0,North,6.9,-,N/A,,Partly Cloudy,360,2013-03-08 14:53:00
10:53 AM,39.0,25.0,57,30.47,10.0,Variable,4.6,-,N/A,,Partly Cloudy,0,2013-03-08 15:53:00
11:53 AM,42.1,25.0,51,30.45,10.0,North,8.1,-,N/A,,Mostly Cloudy,10,2013-03-08 16:53:00
12:53 PM,43.0,25.0,49,30.44,10.0,NW,9.2,-,N/A,,Scattered Clouds,310,2013-03-08 17:53:00
1:53 PM,45.0,25.0,46,30.42,10.0,Variable,5.8,-,N/A,,Mostly Cloudy,0,2013-03-08 18:53:00
2:53 PM,45.0,24.1,44,30.41,10.0,North,9.2,-,N/A,,Clear,360,2013-03-08 19:53:00
3:53 PM,45.0,23.0,42,30.41,10.0,North,4.6,-,N/A,,Clear,360,2013-03-08 20:53:00
4:53 PM,46.0,24.1,42,30.41,10.0,WNW,6.9,-,N/A,,Clear,290,2013-03-08 21:53:00
5:53 PM,45.0,24.1,44,30.42,10.0,NW,5.8,-,N/A,,Clear,310,2013-03-08 22:53:00
6:53 PM,42.1,23.0,47,30.42,10.0,NNW,3.5,-,N/A,,Clear,340,2013-03-08 23:53:00
7:53 PM,37.9,25.0,60,30.42,10.0,NNE,8.1,-,N/A,,Clear,30,2013-03-09 00:53:00
8:53 PM,37.0,24.1,59,30.44,10.0,NE,4.6,-,N/A,,Clear,40,2013-03-09 01:53:00
9:53 PM,36.0,24.1,62,30.45,10.0,NNE,4.6,-,N/A,,Clear,20,2013-03-09 02:53:00
10:53 PM,32.0,24.1,73,30.45,10.0,NNE,3.5,-,N/A,,Clear,20,2013-03-09 03:53:00
11:53 PM,30.0,24.1,79,30.45,10.0,Calm,Calm,-,N/A,,Clear,0,2013-03-09 04:53:00